Date,TemperatureHighF,TemperatureAvgF,TemperatureLowF,DewpointHighF,DewpointAvgF,DewpointLowF,HumidityHigh,HumidityAvg,HumidityLow,PressureMaxIn,PressureMinIn,WindSpeedMaxMPH,WindSpeedAvgMPH,GustSpeedMaxMPH,PrecipitationSumIn
2015-1-1,50.9,43.5,35.2,29.9,17.0,4.7,74,38,18,30.16,30.06,16,1,16,0.00
2015-1-2,48.7,39.1,31.2,34.6,28.5,24.1,86,66,45,30.22,30.13,4,0,5,0.00
2015-1-3,50.5,41.5,34.4,37.0,32.7,29.5,84,72,52,30.33,30.19,6,0,6,0.00
2015-1-4,53.3,44.6,36.7,36.1,33.2,24.6,86,66,33,30.46,30.32,7,0,7,0.00
2015-1-5,58.9,51.9,44.5,41.8,36.9,34.1,73,57,44,30.41,30.24,10,1,11,0.00
2015-1-6,61.9,55.6,48.7,39.8,36.7,32.5,66,49,39,30.29,30.18,9,1,9,0.00
2015-1-7,66.5,60.3,55.8,41.3,35.7,30.5,51,40,32,30.23,30.06,8,1,8,0.00
2015-1-8,63.3,57.4,51.9,45.1,39.2,33.0,66,51,38,30.08,29.98,6,0,6,0.00
2015-1-9,62.9,54.6,49.4,47.5,42.2,37.9,83,64,42,30.03,29.95,3,0,6,0.00
2015-1-10,59.9,51.3,45.1,49.8,45.2,40.9,90,80,60,30.01,29.93,2,0,2,0.00
2015-1-11,57.1,49.7,43.5,49.0,44.9,37.9,90,84,66,30.17,29.99,5,0,5,0.00
2015-1-12,60.1,52.3,44.9,48.0,44.2,41.3,89,75,57,30.26,30.16,7,0,9,0.00
2015-1-13,59.3,53.2,49.4,42.2,36.1,32.1,68,53,39,30.21,30.11,15,2,17,0.00
2015-1-14,53.7,48.2,42.9,44.0,37.4,30.7,89,67,49,30.29,30.14,9,1,9,0.00
2015-1-15,53.7,46.8,41.7,44.5,41.3,37.8,89,81,68,30.34,30.24,3,0,3,0.00
2015-1-16,52.4,48.3,44.8,46.8,41.5,38.1,89,77,71,30.30,30.21,4,0,4,0.05
2015-1-17,57.9,51.6,47.0,55.0,44.3,39.1,90,76,70,30.30,30.20,5,1,5,0.01
2015-1-18,59.4,53.6,49.7,56.1,47.8,42.3,91,81,71,30.31,30.24,6,1,6,0.01
2015-1-19,59.1,51.0,44.3,48.7,43.7,39.5,91,77,55,30.29,30.16,10,1,10,0.01
2015-1-20,57.6,50.4,43.7,46.8,38.3,31.3,90,64,40,30.17,30.05,9,0,9,0.00
2015-1-21,61.2,51.7,43.0,45.8,35.3,28.0,90,56,29,30.17,30.07,11,1,14,0.00
2015-1-22,58.9,49.6,41.6,41.7,38.7,31.8,89,67,45,30.35,30.17,8,1,8,0.00
2015-1-23,69.0,61.2,52.0,39.6,33.9,27.4,47,36,30,30.37,30.24,13,2,14,0.00
2015-1-24,74.0,66.6,59.4,41.4,36.4,32.8,40,33,26,30.25,30.06,11,2,16,0.00
2015-1-25,70.3,60.1,52.0,48.4,42.0,35.5,73,52,33,30.11,29.97,10,1,11,0.00
2015-1-26,66.3,56.4,50.3,49.8,44.1,38.4,79,64,48,30.04,29.94,6,1,6,0.00
2015-1-27,57.0,52.0,47.4,47.8,44.9,36.4,88,77,53,30.26,29.98,6,0,6,0.00
2015-1-28,65.2,53.5,46.8,49.5,44.3,38.1,89,73,43,30.26,30.14,6,0,6,0.00
2015-1-29,64.2,55.2,48.8,48.1,42.3,37.8,87,63,39,30.16,30.05,11,1,11,0.00
2015-1-30,66.3,59.0,50.1,42.0,37.5,27.4,73,46,29,30.05,29.89,18,1,18,0.00
2015-1-31,71.2,61.0,54.3,35.1,24.8,18.9,42,25,18,30.04,29.92,19,2,21,0.00
2015-2-1,65.2,55.7,49.3,44.5,35.0,24.4,80,48,29,30.16,30.03,6,0,6,0.00
2015-2-2,64.7,54.7,47.6,52.2,46.5,42.0,88,74,57,30.18,30.08,3,0,3,0.00
2015-2-3,65.8,55.3,49.1,54.4,49.6,44.6,89,82,64,30.13,30.05,3,0,4,0.00
2015-2-4,62.2,52.7,46.4,52.0,45.5,38.8,88,77,55,30.07,29.99,6,1,6,0.00
2015-2-5,55.5,50.3,46.1,50.7,46.0,39.9,89,85,78,30.02,29.87,9,1,9,0.00
2015-2-6,56.0,52.8,50.0,48.9,46.3,41.1,89,79,70,29.93,29.74,14,2,19,3.53
2015-2-7,59.3,54.5,51.6,54.8,48.6,43.5,90,81,69,30.07,29.84,13,2,15,0.08
2015-2-8,53.7,52.8,49.9,50.7,45.2,42.0,91,75,72,30.04,29.82,16,2,21,1.66
2015-2-9,55.4,49.6,43.4,50.5,43.2,40.6,92,79,72,30.24,29.94,12,2,22,0.17
2015-2-10,59.6,49.5,43.3,48.2,41.6,37.6,91,75,50,30.23,30.10,10,1,11,0.00
2015-2-11,62.1,54.9,47.5,44.8,37.8,32.6,78,53,42,30.20,30.11,10,1,11,0.00
2015-2-12,66.5,58.6,53.2,48.3,40.8,34.1,71,52,41,30.22,30.14,6,1,9,0.00
2015-2-13,69.2,60.3,53.6,47.7,40.9,33.1,70,50,30,30.16,30.07,4,0,4,0.00
2015-2-14,69.8,59.2,49.6,47.6,42.6,33.9,74,55,37,30.11,30.04,6,0,7,0.00
2015-2-15,71.0,61.0,53.9,47.9,39.4,32.3,69,46,29,30.06,29.96,6,1,11,0.00
2015-2-16,70.9,59.5,51.0,51.9,43.5,32.6,89,57,40,30.01,29.94,8,1,11,0.00
2015-2-17,52.2,47.5,43.0,49.1,41.3,35.9,89,79,70,30.16,29.98,4,0,5,0.00
2015-2-18,63.9,51.8,40.6,55.7,45.0,34.2,90,78,63,30.23,30.10,5,0,5,0.00
2015-2-19,65.6,54.7,48.1,55.2,46.8,39.8,89,75,49,30.15,30.03,5,0,6,0.01
2015-2-20,67.5,57.3,49.3,52.8,42.3,28.8,89,60,27,30.07,29.93,8,1,11,0.00
2015-2-21,67.1,56.8,46.3,50.2,36.1,25.7,88,49,26,29.95,29.80,11,1,11,0.00
2015-2-22,56.6,50.6,44.7,28.0,23.6,16.1,46,35,26,29.92,29.82,21,4,21,0.00
2015-2-23,54.3,48.5,42.8,17.1,11.8,6.5,29,23,19,30.25,29.91,26,3,26,0.00
2015-2-24,64.7,53.2,44.9,34.9,18.7,6.0,67,29,14,30.35,30.23,6,1,13,0.00
2015-2-25,65.0,54.5,44.7,43.2,34.7,26.6,73,48,33,30.28,30.07,7,1,7,0.00
2015-2-26,67.0,57.7,47.3,45.3,40.0,32.7,85,53,38,30.07,29.86,15,2,15,0.00
2015-2-27,55.2,31.7,-90.0,46.3,25.3,-92.1,100,79,59,29.88,29.68,13,2,13,0.00
2015-2-28,51.6,-30.2,-90.0,40.6,-34.1,-92.1,89,82,66,29.81,29.70,6,0,7,0.00
2015-3-6,67.3,56.6,51.5,40.9,39.4,37.5,64,53,34,30.14,30.12,3,0,3,0.00
2015-3-7,75.1,60.4,52.2,47.8,38.3,28.1,71,47,23,30.12,29.99,9,0,11,0.00
2015-3-8,72.3,47.0,-90.0,50.2,29.5,-95.7,73,53,26,30.07,29.96,5,1,6,0.00
2015-3-9,74.6,12.1,-90.0,52.8,-1.4,-94.4,84,60,28,30.00,29.88,5,1,9,0.00
2015-3-10,67.7,8.5,-90.0,52.9,0.4,-96.3,87,69,49,29.97,29.86,5,1,6,0.00
2015-3-11,57.4,53.5,48.6,51.6,45.4,41.6,87,74,65,30.19,29.95,4,1,5,0.00
2015-3-16,65.1,65.1,65.1,50.4,50.4,50.4,100,100,100,30.04,29.98,5,1,5,0.00
2015-3-17,67.5,62.7,47.9,50.4,48.1,42.0,100,86,43,30.07,29.97,8,1,8,0.00
2015-3-18,70.5,58.8,49.1,46.4,42.3,37.3,100,60,34,30.04,29.97,9,1,9,0.00
2015-3-19,75.2,61.5,53.5,48.7,44.3,36.2,100,54,28,30.03,29.94,9,1,9,0.00
2015-3-20,66.3,56.3,49.7,46.4,40.4,25.3,73,57,23,30.12,29.99,9,2,9,0.00
2015-3-21,69.0,56.3,46.7,50.2,45.1,39.1,86,67,40,30.15,30.07,7,1,7,0.00
2015-3-22,62.2,52.9,47.5,51.8,43.6,37.2,100,83,60,30.14,30.07,13,2,13,0.16
2015-3-23,57.7,49.6,45.9,45.0,39.8,36.0,88,69,51,30.29,30.14,10,2,10,0.00
2015-3-24,61.9,51.1,44.0,51.8,44.0,35.9,88,77,62,30.30,30.22,7,1,7,0.00
2015-3-25,74.8,60.0,50.3,50.9,45.4,40.7,85,61,30,30.25,30.13,11,1,13,0.00
2015-3-26,78.7,66.1,55.6,54.5,48.4,43.8,77,54,35,30.16,30.05,10,0,10,0.00
2015-3-27,72.4,61.9,49.7,57.4,52.0,45.8,87,72,41,30.11,30.04,8,2,9,0.00
2015-3-28,77.3,63.7,47.1,45.8,38.0,21.1,87,43,13,30.18,30.06,10,2,12,0.00
2015-3-29,78.8,65.2,49.5,45.9,38.6,29.6,62,39,21,30.10,29.98,8,1,9,0.00
2015-3-30,74.8,63.3,53.2,54.7,45.8,35.3,67,53,40,30.01,29.94,9,2,9,0.00
2015-3-31,64.5,53.6,43.6,47.2,35.1,20.4,85,55,23,30.18,29.98,16,2,16,0.00
2015-4-1,62.4,50.9,38.7,38.1,30.1,16.6,61,45,27,30.18,30.03,9,1,9,0.00
2015-4-2,64.5,54.1,45.3,35.1,25.9,16.1,57,35,16,30.21,30.11,15,2,15,0.00
2015-4-3,68.5,56.9,43.8,38.3,30.0,21.6,65,37,20,30.20,30.06,8,1,8,0.00
2015-4-4,60.9,48.2,38.7,39.6,33.1,25.9,79,58,29,30.06,29.91,14,2,14,0.00
2015-4-5,50.4,42.7,38.4,42.8,35.3,29.6,86,75,61,29.92,29.85,11,2,11,0.09
2015-4-6,51.1,42.6,35.2,41.5,36.7,29.9,87,80,60,29.94,29.81,6,0,6,0.00
2015-4-7,48.1,42.2,38.4,42.5,35.6,31.3,88,77,68,30.03,29.74,16,2,17,0.72
2015-4-8,56.6,43.9,34.4,41.9,35.9,26.6,89,74,53,30.21,30.03,6,1,7,0.00
2015-4-9,65.0,50.1,38.7,46.0,39.2,33.2,88,69,35,30.11,29.95,7,1,7,0.00
2015-4-10,69.1,53.3,41.6,47.2,37.4,18.2,87,59,23,30.03,29.97,8,1,8,0.00
2015-4-11,67.0,55.7,45.8,47.4,41.3,31.2,86,59,46,30.06,29.97,8,1,8,0.00
2015-4-12,75.7,61.5,49.8,50.0,43.0,30.3,84,54,23,30.05,29.94,7,1,8,0.00
2015-4-13,65.0,54.8,43.5,50.7,43.8,37.9,84,68,39,30.09,29.95,14,2,15,0.00
2015-4-14,60.2,48.9,39.7,39.1,27.6,13.1,87,46,23,30.33,30.08,17,2,18,0.00
2015-4-15,68.4,57.1,46.2,32.8,24.6,20.8,58,30,17,30.24,30.03,18,3,18,0.00
2015-4-16,75.3,64.0,56.1,36.0,26.8,19.8,45,25,14,30.06,29.95,19,2,20,0.00
2015-4-17,78.8,64.3,51.3,46.5,36.2,27.3,53,36,23,30.07,29.97,8,1,8,0.00
2015-4-18,79.0,64.6,52.0,54.2,43.9,35.7,77,48,24,29.99,29.87,8,1,8,0.00
2015-4-19,77.7,64.4,51.3,55.9,48.1,36.3,100,59,28,29.91,29.80,8,1,8,0.00
2015-4-20,69.3,54.7,45.4,55.3,45.6,34.3,86,72,57,29.84,29.77,7,1,7,0.00
2015-4-21,57.6,49.6,46.0,52.8,41.7,36.6,88,74,64,29.85,29.78,9,2,9,0.01
2015-4-22,69.5,55.8,45.3,57.5,47.4,37.2,88,74,61,29.89,29.81,10,1,10,0.00
2015-4-23,67.8,55.1,44.3,55.9,45.9,34.0,88,71,60,29.86,29.78,10,2,12,0.00
2015-4-24,63.1,50.7,44.0,44.2,40.7,34.0,87,71,39,29.95,29.83,12,2,12,0.25
2015-4-25,61.1,51.2,43.9,51.3,41.9,35.5,88,71,52,30.02,29.84,12,2,12,0.23
2015-4-26,71.5,56.4,40.2,50.7,40.8,31.3,88,59,32,30.15,30.02,8,1,8,0.00
2015-4-27,81.7,69.3,56.8,51.8,45.5,39.4,71,44,23,30.07,29.90,14,2,15,0.00
2015-4-28,74.5,61.1,48.4,58.1,50.1,44.5,87,69,44,29.98,29.92,10,1,10,0.00
2015-4-29,75.5,61.0,47.9,56.0,50.1,43.8,100,72,45,29.97,29.87,7,1,7,0.00
2015-4-30,82.3,69.7,60.3,48.9,36.4,29.6,65,31,16,29.89,29.79,13,1,15,0.00
2015-5-1,82.2,70.1,55.8,53.6,40.2,27.2,78,36,17,29.84,29.77,7,1,7,0.00
2015-5-2,75.5,61.1,45.0,54.2,44.7,34.3,85,57,39,29.83,29.77,7,1,7,0.00
2015-5-3,66.0,52.4,43.4,53.9,43.2,32.4,87,71,62,29.87,29.78,8,1,9,0.00
2015-5-4,67.3,52.0,43.5,55.2,43.5,34.9,87,73,60,29.94,29.87,7,2,8,0.01
2015-5-5,69.0,54.3,44.1,53.2,43.8,33.9,87,68,52,29.92,29.83,10,1,10,0.00
2015-5-6,71.0,56.4,41.6,47.0,42.4,37.8,87,62,37,29.85,29.75,9,1,11,0.00
2015-5-7,66.0,55.8,49.1,41.9,33.7,27.9,76,44,29,29.75,29.70,18,2,21,0.00
2015-5-8,71.3,55.8,45.9,51.2,43.6,35.0,86,65,42,29.97,29.74,9,1,9,0.00
2015-5-9,69.8,54.8,41.5,54.1,44.3,31.5,87,68,51,30.07,29.97,10,1,10,0.00
2015-5-10,71.0,54.2,41.7,55.5,45.7,31.5,87,74,57,30.03,29.92,6,1,6,0.00
2015-5-11,66.4,53.0,44.5,49.0,42.9,34.0,86,70,40,29.92,29.79,9,3,10,0.00
2015-5-12,62.9,50.2,38.3,43.5,38.2,34.1,87,65,38,29.92,29.80,10,2,10,0.00
2015-5-13,60.8,49.2,41.9,44.3,41.1,37.8,86,75,49,29.92,29.85,11,2,13,0.00
2015-5-14,60.2,50.3,43.2,48.0,42.4,36.0,86,75,55,29.89,29.77,8,1,8,0.00
2015-5-15,66.0,52.6,43.1,48.3,42.2,32.5,87,69,50,29.90,29.82,13,2,13,0.00
2015-5-16,70.8,54.6,42.0,64.8,45.9,31.9,100,76,54,29.96,29.89,5,1,5,0.00
2015-5-17,61.9,51.7,45.1,51.4,43.6,33.6,87,74,63,30.00,29.95,5,1,6,0.00
2015-5-18,67.8,54.0,44.4,52.9,43.7,33.5,100,72,50,30.05,29.99,8,1,8,0.00
2015-5-19,69.7,58.3,47.5,55.1,49.7,41.5,96,76,51,30.04,29.90,4,1,6,0.00
2015-5-20,66.5,52.4,43.4,54.7,44.2,33.3,88,74,63,29.93,29.86,8,2,8,0.00
2015-5-21,63.4,52.8,47.4,56.0,44.7,36.6,87,74,63,29.94,29.87,9,2,9,0.00
2015-5-22,69.5,55.9,48.3,56.5,46.6,37.7,87,71,60,30.00,29.93,8,1,8,0.00
2015-5-23,69.0,56.0,47.6,57.1,46.9,36.8,87,72,62,30.06,29.98,7,1,7,0.00
2015-5-24,70.7,57.7,46.7,56.9,49.8,35.9,88,76,59,30.01,29.87,6,1,6,0.00
2015-5-25,69.0,54.3,46.0,56.6,45.4,35.5,100,73,62,29.93,29.87,8,2,8,0.00
2015-5-26,70.0,53.6,44.3,56.7,44.2,35.7,88,71,58,29.98,29.91,8,2,8,0.00
2015-5-27,72.9,56.7,46.2,57.1,46.6,36.8,87,69,52,29.99,29.93,9,1,9,0.00
2015-5-28,76.3,61.6,48.1,58.6,51.3,40.4,100,73,47,30.00,29.91,10,1,11,0.00
2015-5-29,78.4,64.0,50.1,58.5,53.1,46.0,87,70,38,29.94,29.85,5,1,5,0.00
2015-5-30,81.0,66.0,51.2,58.9,52.6,44.4,100,69,32,29.91,29.82,7,1,7,0.00
2015-5-31,65.6,65.6,65.6,53.1,53.1,53.1,100,97,68,29.90,29.79,10,3,10,0.00
2015-6-1,65.6,65.6,65.6,53.1,53.1,53.1,100,93,60,30.02,29.90,11,3,11,0.00
2015-6-2,75.8,66.9,57.1,56.4,52.4,46.3,100,76,48,30.02,29.86,11,2,11,0.00
2015-6-3,57.1,57.1,57.1,47.8,47.8,47.8,100,100,93,29.89,29.78,8,1,9,0.00
2015-6-4,57.1,57.1,57.1,47.8,47.8,47.8,100,98,82,29.81,29.75,10,1,10,0.00
2015-6-5,57.1,57.1,57.1,47.8,47.8,47.8,100,97,73,29.81,29.76,8,1,8,0.00
2015-6-10,70.3,67.1,62.4,59.5,56.8,55.4,79,70,64,29.86,29.83,8,2,9,0.02
2015-6-11,86.5,72.1,59.7,63.6,58.6,54.5,100,66,43,29.87,29.75,10,1,11,0.00
2015-6-12,94.3,80.3,62.9,61.5,52.9,46.8,76,42,22,29.78,29.67,11,2,11,0.00
2015-6-13,86.6,68.7,55.6,62.3,56.2,50.4,84,66,44,29.70,29.64,8,1,8,0.00
2015-6-14,76.5,59.9,47.3,57.2,48.8,35.1,85,68,49,29.78,29.67,9,2,9,0.00
2015-6-15,78.3,60.6,45.6,58.1,50.1,37.0,85,70,46,29.88,29.77,8,1,8,0.00
2015-6-16,84.8,70.2,52.3,58.4,50.9,41.9,85,53,27,29.91,29.84,9,1,9,0.00
2015-6-17,88.4,73.6,57.3,59.8,52.0,43.6,73,50,33,29.87,29.81,7,1,7,0.00
2015-6-18,83.3,68.4,55.2,52.3,45.1,32.3,74,47,21,29.93,29.82,15,2,15,0.00
2015-6-19,87.0,69.5,51.2,53.8,43.4,33.1,63,40,24,29.93,29.86,8,1,8,0.00
2015-6-20,87.7,71.7,57.7,57.3,48.9,40.3,73,46,24,29.87,29.78,8,1,8,0.00
2015-6-21,73.3,59.1,46.7,52.3,46.3,33.6,84,63,45,29.96,29.78,10,3,10,0.00
2015-6-22,80.5,64.7,49.9,56.1,50.2,43.3,84,62,35,30.01,29.93,10,1,10,0.00
2015-6-23,86.7,71.9,56.8,55.7,49.3,43.6,78,47,30,29.96,29.85,8,2,9,0.00
2015-6-24,88.8,71.0,53.4,57.8,51.5,43.3,75,52,31,29.89,29.81,7,1,7,0.00
2015-6-25,95.5,80.3,65.8,60.9,54.3,49.9,61,42,29,29.86,29.78,9,2,9,0.00
2015-6-26,93.8,76.3,64.5,56.0,48.9,41.8,59,40,26,29.89,29.81,11,2,11,0.00
2015-6-27,80.5,67.1,53.7,59.4,50.4,33.6,81,57,31,29.96,29.85,8,2,8,0.00
2015-6-28,82.0,68.3,57.4,59.3,54.1,43.6,82,63,31,29.96,29.89,8,1,8,0.00
2015-6-29,90.5,71.9,50.5,57.3,50.8,34.5,83,52,16,29.97,29.86,7,1,7,0.00
2015-6-30,101.8,85.2,68.4,59.6,51.3,44.4,61,33,17,29.88,29.75,7,1,8,0.00
2015-7-1,89.0,81.8,73.2,60.4,47.2,26.4,44,31,12,29.85,29.73,8,2,9,0.00
2015-7-2,85.8,74.8,63.8,59.6,51.7,38.0,75,47,26,29.89,29.80,9,2,9,0.00
2015-7-3,67.5,65.0,62.5,57.7,55.5,54.5,76,72,68,29.87,29.84,2,0,2,0.00